NOSS 3-4 (C) - Orbit

View from above orbital plane
View from above orbital plane
View from above satellite
View from above satellite

Ground track
Ground track

The orbit data is extracted from the following two-line orbital elements,

1 31708U 07027C   13164.38683410 0.00000000  00000-0  00000-0 0    06
2 31708  63.4040 215.8760 0085000  51.8817 308.1183 13.40620657    08
Epoch (UTC): 13 June 2013 09:17:02
Eccentricity: 0.0085000
inclination: 63.4040°
perigee height: 1043 km
apogee height: 1170 km
right ascension of ascending node: 215.8760°
argument of perigee: 51.8817°
revolutions per day: 13.40620657
mean anomaly at epoch: 308.1183°
orbit number at epoch: 0

The dashed part of the orbit path shows where the satellite is in the earth's shadow,  

Developed and maintained by Chris Peat, Heavens-Above GmbH. Please read the updated FAQ before sending e-mail. Imprint. DLR